Theta_e
309 308 307 307 307 306 305 304 304 303 302 301 301 300 300 299 298 299 300 300 300 300 298 298 297 299 304 302 300 301 303 311 325 329 330 331 330 328 324 323 327 326 324
309 309 309 308 308 306 305 305 304 304 303 302 302 301 301 300 299 299 299 298 299 299 298 298 295 297 299 306 303 300 301 304 323 330 330 331 331 328 326 322 328 326 324
309 310 310 309 309 308 307 306 305 304 303 303 301 300 300 300 300 300 299 299 298 298 297 298 297 295 296 303 304 302 300 302 317 328 330 330 329 327 327 323 328 326 324
310 311 310 309 308 308 307 306 305 304 303 302 301 301 301 301 300 300 300 299 299 298 297 297 298 298 295 296 298 302 301 300 307 325 329 329 329 328 328 325 327 326 323
310 310 310 309 308 307 307 306 305 303 302 302 302 302 301 301 301 300 300 299 299 299 298 297 297 298 297 295 295 298 302 302 301 316 327 328 328 329 328 327 327 326 323
311 310 310 309 308 307 306 306 306 303 301 302 302 302 302 301 300 300 300 300 299 298 298 298 297 296 297 297 295 295 299 304 300 306 325 328 328 328 328 328 326 326 324
309 309 309 308 307 306 307 306 305 304 299 300 302 302 302 301 300 300 300 299 299 299 298 298 298 297 296 297 296 295 296 305 306 302 318 326 327 328 328 328 327 326 324
309 308 306 306 306 307 307 306 305 302 300 299 301 302 302 301 301 300 298 299 299 299 298 298 298 297 298 296 298 296 295 303 307 305 308 324 327 328 328 328 326 327 324
305 305 303 302 302 302 302 303 304 301 300 299 300 301 301 300 300 298 298 298 299 300 299 298 298 298 300 296 299 300 296 295 302 312 303 320 326 328 328 328 326 327 325
302 301 300 300 300 300 300 301 301 301 300 299 299 300 300 300 299 299 299 300 300 299 299 298 298 299 300 299 298 301 301 295 297 307 306 310 322 326 327 328 326 327 325
298 297 298 298 298 297 299 300 301 300 300 299 299 298 299 300 300 299 299 299 299 299 298 299 299 299 300 300 297 300 302 300 296 306 309 305 321 324 327 328 327 327 325
297 296 297 297 297 297 297 298 298 300 300 299 299 298 299 300 299 299 299 298 299 299 299 299 299 300 301 301 299 299 303 301 296 302 309 307 315 322 327 327 327 327 325
295 296 295 295 296 296 296 295 296 298 299 300 299 298 297 298 299 299 299 298 298 299 300 300 300 300 300 301 299 300 302 303 299 297 300 308 307 322 325 324 325 327 325
295 294 295 295 295 295 295 295 295 294 296 300 299 299 297 297 298 299 298 298 298 298 298 300 301 301 300 300 299 300 302 302 304 302 298 298 304 321 323 324 327 327 325
293 293 293 293 294 294 294 294 294 295 295 296 299 298 298 296 298 298 298 297 298 298 298 299 301 301 300 300 302 300 301 302 303 303 301 298 300 316 321 324 324 326 325
291 290 290 290 290 290 290 290 291 292 293 294 295 298 298 296 297 298 297 297 298 298 297 300 301 301 301 302 303 303 303 303 303 301 300 298 299 308 321 324 325 325 323
290 290 290 290 290 290 289 289 289 289 289 292 294 297 298 296 296 297 297 298 298 298 297 300 301 301 302 303 303 303 303 303 303 302 297 297 299 308 323 324 322 324 324
291 290 290 290 291 291 290 290 289 289 288 291 293 294 297 297 296 296 297 297 298 297 297 298 302 302 301 302 303 303 303 302 303 305 302 297 300 316 320 321 319 324 324
290 291 289 290 289 289 289 291 290 289 288 290 292 294 295 297 296 296 296 296 297 296 296 298 302 302 302 302 303 304 303 306 306 305 302 297 302 315 321 323 322 324 323
289 289 289 288 288 289 289 289 290 289 288 289 293 293 295 297 296 296 296 296 296 296 295 297 302 302 301 301 302 303 304 306 307 306 299 299 309 319 322 321 321 322 320
288 288 288 288 289 288 288 289 290 289 288 288 291 293 295 296 296 296 295 296 296 295 295 297 300 301 301 301 302 303 305 307 308 308 299 311 318 319 319 322 323 321 320
288 287 288 288 287 288 288 288 289 289 289 288 289 291 292 295 295 296 295 295 295 295 296 298 300 300 300 301 302 303 305 307 308 305 313 318 320 322 321 321 322 321 319
288 287 287 288 288 289 288 289 289 289 289 288 288 289 291 292 294 295 294 295 294 295 296 298 299 300 300 301 302 303 304 307 307 310 315 317 319 320 321 319 318 319 318
288 287 287 288 288 288 288 289 289 288 288 288 288 288 289 290 292 294 294 295 294 295 296 297 299 299 300 301 302 303 305 306 309 314 317 319 317 319 319 319 319 317 315
288 288 288 288 288 288 288 288 288 288 288 288 288 289 289 290 290 292 293 294 294 295 295 298 299 299 300 302 303 305 306 307 311 314 316 318 319 319 320 320 319 317 317
289 288 288 288 288 288 287 288 288 288 288 288 288 288 289 290 291 292 293 293 294 294 296 298 298 299 301 303 304 306 309 309 314 313 316 316 318 319 318 318 318 318 317
Wind_Speed
9 8 8 9 9 9 10 11 13 14 14 13 14 13 9 6 8 15 15 14 15 13 9 7 11 11 8 11 15 18 18 18 17 14 16 18 16 15 14 13 13 9 6
12 12 13 13 13 13 12 13 15 16 17 17 17 17 16 16 10 9 13 15 14 13 10 6 9 13 12 8 12 17 20 20 21 17 19 20 19 17 16 14 14 10 7
17 17 17 16 16 17 19 18 17 18 19 19 19 16 13 11 10 9 9 11 12 11 10 8 7 12 16 12 11 13 20 23 23 21 22 23 21 18 18 16 15 11 8
20 21 22 22 24 22 19 19 17 18 21 22 20 16 13 12 13 14 14 12 11 11 11 11 9 9 13 18 16 12 15 23 24 24 19 19 22 20 18 16 16 13 10
23 25 26 28 24 22 20 20 19 20 22 22 21 20 17 17 15 15 14 14 15 14 12 10 12 10 10 14 17 16 14 17 26 26 21 19 22 21 20 17 18 14 11
28 27 26 27 24 20 20 24 25 22 21 22 22 22 21 19 18 15 17 17 16 16 15 12 12 12 12 11 14 18 16 14 24 27 26 21 25 24 22 19 19 15 13
18 20 19 17 23 28 31 28 26 23 21 23 22 23 23 22 23 23 21 20 20 20 18 15 13 10 12 12 11 17 18 15 16 28 29 27 24 26 24 23 20 17 14
31 32 27 27 28 26 33 30 28 25 24 21 24 22 25 26 26 25 24 24 22 18 17 20 16 12 10 14 12 13 18 17 15 21 30 31 26 26 25 22 20 18 15
35 29 30 26 27 25 28 29 30 30 27 22 24 24 14 14 14 13 13 20 18 19 17 15 16 14 11 12 15 12 15 20 19 14 30 32 28 25 28 25 23 18 17
31 34 34 35 34 30 27 29 30 31 29 26 26 28 27 22 14 8 4 6 15 14 18 15 15 15 13 10 16 14 12 15 20 19 24 32 33 26 28 28 24 21 19
28 28 31 33 34 35 32 29 31 32 33 30 27 28 29 29 28 21 18 13 9 11 14 13 12 17 15 9 15 17 14 13 21 21 18 31 35 30 27 28 26 25 22
35 33 29 29 27 26 26 33 34 34 35 34 30 26 31 29 29 25 20 20 12 11 11 14 13 16 13 12 13 18 14 11 23 25 21 25 38 35 27 32 32 26 24
30 33 35 35 33 33 30 25 24 31 37 37 35 30 28 31 28 24 22 21 20 12 5 9 9 8 13 13 12 20 16 12 14 23 23 26 38 39 25 31 27 25 25
34 32 34 37 39 40 38 40 41 29 28 36 37 34 28 29 29 27 23 20 20 20 12 8 7 9 10 13 11 21 18 14 13 15 21 24 33 41 31 33 26 27 26
30 32 35 39 43 45 46 45 43 47 43 30 38 37 34 30 30 30 27 23 20 18 16 8 10 7 10 12 10 13 19 14 14 14 15 20 26 43 39 31 38 32 25
18 19 19 17 18 19 21 26 33 40 48 49 35 39 37 30 32 29 29 24 22 20 16 6 10 8 11 10 10 9 11 12 11 13 16 18 25 42 44 27 32 30 28
17 18 18 18 18 18 17 17 20 23 26 38 46 30 38 33 32 31 26 24 24 20 17 13 7 12 12 10 10 8 9 12 12 12 13 17 27 40 40 28 39 31 32
17 16 17 18 19 20 18 19 17 18 18 26 38 40 37 33 31 32 29 25 24 22 19 18 7 15 9 10 11 9 8 11 12 12 12 17 30 39 34 31 33 35 33
17 16 19 20 18 19 21 21 17 16 16 23 35 37 32 35 32 32 29 27 23 21 20 19 11 13 14 11 10 8 8 9 11 14 14 18 34 40 30 30 39 32 27
17 17 18 17 18 18 18 19 19 14 13 20 29 28 32 39 37 36 32 27 25 22 19 21 15 11 13 13 10 8 11 7 7 11 17 22 35 33 28 31 36 30 32
16 16 15 13 12 14 17 18 19 16 15 19 29 33 36 38 37 35 33 27 23 22 20 22 13 10 14 13 13 8 10 9 9 7 17 32 34 28 24 30 35 31 27
15 13 11 11 9 11 13 16 18 17 17 17 24 32 31 28 37 34 30 28 23 23 24 23 13 14 13 13 12 10 11 9 8 14 25 25 24 23 21 36 37 29 29
13 13 11 10 7 4 8 14 16 15 17 17 19 25 32 37 30 30 28 25 22 21 24 22 15 13 14 12 14 14 12 9 10 24 25 30 30 30 41 31 35 34 34
14 15 12 13 12 10 10 13 13 14 16 16 20 20 25 32 37 32 26 29 23 23 26 23 17 15 14 13 12 15 13 10 14 27 24 30 34 39 37 34 33 32 32
14 13 12 11 13 12 10 11 14 15 15 16 19 23 25 27 36 37 33 27 27 25 27 23 16 14 13 12 14 17 15 19 25 28 36 40 40 41 42 37 36 34 34
15 12 9 10 10 11 10 9 12 15 17 18 20 16 25 28 27 41 38 26 29 26 28 22 15 13 14 14 17 13 13 18 28 25 35 41 46 44 40 39 41 36 33
Wind_Direction
284 294 304 302 302 310 314 316 315 315 313 311 307 306 301 293 269 259 263 264 270 282 292 267 233 236 234 224 217 213 209 204 197 198 190 189 193 192 180 181 180 176 164
287 295 299 295 298 299 302 306 304 301 301 300 298 295 293 294 292 279 269 271 275 278 274 265 241 226 232 233 225 212 206 203 197 189 191 187 195 194 182 180 179 177 166
288 288 286 289 294 296 298 300 297 284 285 288 287 285 272 269 281 288 289 283 282 287 275 252 235 233 229 226 236 223 208 204 198 195 192 194 193 193 184 181 177 180 173
277 282 279 282 293 284 278 287 301 280 278 282 283 283 269 267 276 283 286 282 289 295 286 258 246 238 232 233 234 229 212 207 201 197 190 194 186 189 185 183 180 182 172
276 270 271 281 278 273 279 282 289 294 277 277 278 282 276 266 265 268 278 287 280 281 283 275 262 255 244 234 233 228 220 214 204 199 196 176 190 187 188 190 188 180 174
268 271 269 265 260 265 274 275 285 288 278 269 271 270 272 267 259 261 260 264 271 272 277 279 273 257 251 245 234 226 219 218 209 200 200 184 189 192 190 189 185 178 181
264 256 266 248 238 250 267 266 270 276 280 265 262 263 264 265 263 264 261 262 266 281 272 270 268 267 250 241 229 222 221 217 212 203 198 197 184 191 192 188 184 184 183
277 279 272 269 273 271 263 260 261 269 271 268 254 260 262 267 268 268 262 252 256 259 264 258 258 258 258 233 226 218 221 214 208 206 199 198 189 191 194 190 184 189 186
283 276 280 272 274 271 262 261 262 264 259 256 249 250 258 256 269 286 273 249 241 246 253 248 245 250 250 232 215 212 216 218 206 205 200 198 195 186 197 193 187 191 188
270 270 272 272 271 264 258 258 258 254 245 250 250 245 246 250 253 275 301 277 229 229 250 250 244 239 235 246 218 214 212 213 207 195 201 196 197 192 193 194 192 192 193
282 275 271 269 268 263 253 242 249 249 243 245 249 248 243 245 248 251 264 271 236 250 243 238 239 237 234 241 223 215 215 210 197 190 193 198 197 196 193 198 194 197 193
283 283 276 271 266 258 254 248 241 241 243 247 250 252 239 238 241 239 238 253 251 238 241 242 242 228 231 229 232 212 211 201 195 200 198 199 196 194 191 197 198 198 193
284 275 270 269 265 258 260 257 247 242 240 240 245 247 244 237 239 238 239 244 242 248 287 203 206 227 231 229 225 211 209 200 199 211 213 206 194 193 188 202 201 195 187
277 268 263 261 260 260 256 252 252 254 248 234 233 241 241 236 234 231 226 227 237 245 251 230 232 239 230 226 214 211 212 206 206 213 219 218 202 190 189 198 189 196 189
282 278 272 268 264 261 256 255 252 249 243 245 229 228 236 235 227 229 231 229 227 232 236 229 225 229 219 197 187 206 212 216 214 223 226 220 205 193 192 201 194 198 187
291 284 284 276 267 262 260 256 251 248 245 235 238 220 226 230 224 225 228 224 222 225 227 201 209 209 191 200 196 193 209 220 226 232 224 215 204 194 192 194 178 197 192
297 291 286 278 267 260 254 255 252 245 242 232 228 232 213 222 219 217 216 210 215 218 223 212 216 204 201 199 203 206 232 230 236 222 215 208 199 191 191 193 195 198 185
300 295 287 279 279 268 257 253 254 253 243 221 217 220 210 212 214 212 211 211 211 218 221 220 203 192 205 201 208 227 256 229 212 213 218 208 192 185 191 201 200 196 179
309 295 298 280 277 262 257 252 252 245 224 213 216 228 219 204 206 202 204 207 208 213 221 216 184 179 187 195 199 229 204 217 227 210 212 201 186 182 188 194 191 191 185
318 309 302 295 278 258 248 243 242 234 212 203 196 212 214 199 199 201 200 201 206 209 218 212 188 176 186 201 209 241 202 208 225 216 204 182 174 183 188 185 194 194 179
332 326 319 311 285 260 246 224 226 223 206 201 202 185 191 179 190 203 203 198 199 207 211 205 188 191 195 205 211 210 207 210 217 230 185 164 172 177 191 182 189 185 186
347 344 346 336 308 269 232 215 206 212 197 195 195 203 205 178 195 200 199 201 208 210 205 198 190 188 185 193 209 211 205 222 240 183 169 166 169 180 179 175 180 178 172
6 10 14 17 13 17 168 182 184 196 188 188 189 196 199 206 189 188 200 195 196 203 204 194 195 192 190 199 217 205 203 211 204 172 176 173 178 171 171 167 167 174 177
18 21 34 41 50 69 118 143 168 173 177 180 175 188 184 193 200 194 185 189 195 196 195 196 199 192 206 212 226 205 207 218 189 173 180 174 174 174 169 170 172 172 175
19 28 38 46 56 65 88 132 149 160 161 165 166 178 174 182 187 192 194 188 183 189 187 194 197 195 209 218 191 201 225 195 181 184 179 164 168 169 169 170 175 180 179
29 37 37 55 61 76 81 116 140 154 154 152 158 158 177 178 180 181 191 189 184 186 182 193 203 205 199 190 194 205 211 196 182 177 167 176 165 166 164 178 177 170 173